"SCET";"TARGET";"ELECTRON_DENSITY";"ERROR_FLAG";"ELECTRON_DENSITY_ERROR";"FREQ_FCE";"MEASURED_VALUE";"MEASURED_ITEM";"FREQ_PLASMA";"FREQ_UPPER_HYBRID";"FREQ_R_EQUALS_ZERO";"FREQ_L_EQUALS_ZERO";"ORBIT_NUMBER";"SATURN_RADIUS";"SATURN_IAU_LONGITUDE";"SATURN_SLS4_S_LONGITUDE";"SATURN_SLS4_N_LONGITUDE";"SATURN_SLS5_S_LONGITUDE";"SATURN_SLS5_N_LONGITUDE";"SATURN_LOCAL_TIME";"SATURN_KRONOGRAPHIC_LATITUDE";"SATURN_MAGNETIC_LATITUDE";"SATURN_L";"SATURN_L_OFFSET";"SATURN_SOLAR_EQUATORIAL_X";"SATURN_SOLAR_EQUATORIAL_Y";"SATURN_SOLAR_EQUATORIAL_Z";"SATURN_ALTITUDE";"ENCELADUS_ENCOUNTER_NUMBER";"ENCELADUS_RADIUS";"ENCELADUS_COROTATIONAL_X";"ENCELADUS_COROTATIONAL_Y";"ENCELADUS_COROTATIONAL_Z";"ENCELADUS_TRUE_ANOMALY";"ENCELADUS_PERIAPSIS_TIME";"JUPITER_RADIUS";"JUPITER_SYSTEMIII_LONGITUDE";"JUPITER_MAGNETIC_LATITUDE";"JUPITER_MAGNETIC_LOCAL_TIME";"JUPITER_L";"IO_PHASE";"EARTH_RADIUS";"EARTH_MAGNETIC_LATITUDE";"EARTH_LOCAL_TIME";"EARTH_L"
"[UTC]";"[0=Saturn, 1=Enceladus, 2=Jupiter, 3=Earth]";"[cm-3]";"[0=automated, 1=manual]";"[normalized density error]";"[Hz]";"[Hz]";"[0=upper hybrid frequency, 1=plasma frequency cutoff]";"[Hz]";"[Hz]";"[Hz]";"[Hz}";"[0, A, B, C, 3, 4, ... , 292, 293]";"[Rs where 1Rs=60268km]";"[degrees]";"[degrees]";"[degrees]";"[degrees]";"[degrees]";"[hours]";"[degrees]";"[degrees where offset=2293km north]";"[Rs where 1Rs=60268km]";"[Rs where 1Rs=60268km and offset=2293km north]";"[Rs where 1Rs=60268km]";"[Rs where 1Rs=60268km]";"[Rs where 1Rs=60268km]";"[km where ellipsoid a,b=60268km and c=54364km]";"[E0, E1, E2, ... , E21, E22]";"[Renc where 1Renc=252.1km]";"[Renc where 1Renc=252.1km]";"[Renc where 1Renc=252.1km]";"[Renc where 1Renc=252.1km]";"[degrees]";"[UTC]";"[Rj where 1Rj=71492km]";"[degrees]";"[degrees using JRM09 model]";"[hours using JRM09 model]";"[Rj where 1Rj=71492km]";"[degrees]";"[Re where 1Re=6378.1366km]";"[degrees]";"[hours]";"[Re where 1Re=6378.1366km]"
2017-01-09T08:47:11.251Z;0;1.2290e+00;0;     0.212; 36555.930;   9954.060; 1;   9954.060;  37886.930;  39090.637;   2534.707;256;   2.581;  43.095;;;  43.138;  48.776;  12.960;  14.058;  13.236;   2.743;   2.570;   2.425;   0.623;   0.627;;;;;;;;;;;;;;;;;;
2017-01-09T08:47:59.251Z;0;1.5410e+00;0;     0.157; 36561.922;  11148.878; 1;  11148.878;  38223.969;  39693.363;   3131.442;256;   2.578;  43.376;;;  43.425;  49.054;  12.971;  13.736;  12.912;   2.732;   2.567;   2.424;   0.630;   0.612;;;;;;;;;;;;;;;;;;
2017-01-09T08:48:47.251Z;0;1.6000e+00;0;     0.158; 36567.414;  11358.088; 1;  11358.088;  38290.754;  39808.113;   3240.700;256;   2.575;  43.656;;;  43.714;  49.332;  12.982;  13.413;  12.586;   2.721;   2.564;   2.422;   0.637;   0.597;;;;;;;;;;;;;;;;;;
2017-01-09T08:49:35.250Z;0;2.3780e+00;0;     0.235; 36573.656;  13849.072; 1;  13849.072;  39107.918;  41225.984;   4652.328;256;   2.572;  43.937;;;  44.004;  49.610;  12.994;  13.089;  12.260;   2.711;   2.561;   2.421;   0.644;   0.582;;;;;;;;;;;;;;;;;;
2017-01-09T08:49:51.250Z;0;1.7890e+00;0;     0.194; 36575.586;  12009.826; 1;  12009.826;  38496.879;  40166.535;   3590.948;256;   2.571;  44.030;;;  44.100;  49.702;  12.997;  12.980;  12.152;   2.707;   2.560;   2.420;   0.647;   0.577;;;;;;;;;;;;;;;;;;
2017-01-09T08:50:39.250Z;0;2.7600e+00;0;     0.129; 36582.141;  14919.492; 1;  14919.492;  39507.520;  41895.191;   5313.050;256;   2.567;  44.311;;;  44.383;  49.977;  13.009;  12.655;  11.824;   2.697;   2.557;   2.418;   0.654;   0.562;;;;;;;;;;;;;;;;;;
2017-01-09T08:51:27.250Z;0;3.8100e+00;0;     0.226; 36589.000;  17529.098; 1;  17529.098;  40571.223;  43631.391;   7042.390;256;   2.564;  44.592;;;  44.664;  50.250;  13.020;  12.329;  11.496;   2.687;   2.554;   2.416;   0.661;   0.547;;;;;;;;;;;;;;;;;;
2017-01-09T08:53:35.249Z;0;4.1840e+00;0;     0.157; 36608.098;  18368.926; 1;  18368.926;  40958.152;  44235.797;   7627.701;256;   2.556;  45.340;;;  45.410;  50.974;  13.050;  11.456;  10.618;   2.661;   2.546;   2.411;   0.680;   0.508;;;;;;;;;;;;;;;;;;
2017-01-09T08:53:51.249Z;0;4.2390e+00;0;     0.265; 36611.457;  18489.137; 1;  18489.137;  41015.203;  44323.949;   7712.494;256;   2.555;  45.434;;;  45.503;  51.065;  13.054;  11.346;  10.507;   2.658;   2.546;   2.411;   0.683;   0.503;;;;;;;;;;;;;;;;;;
2017-01-09T08:54:23.249Z;0;3.0020e+00;0;     0.119; 36616.664;  15557.979; 1;  15557.979;  39784.809;  42334.270;   5717.606;256;   2.553;  45.621;;;  45.689;  51.245;  13.061;  11.126;  10.286;   2.652;   2.544;   2.409;   0.687;   0.493;;;;;;;;;;;;;;;;;;
2017-01-09T08:55:11.248Z;0;3.6550e+00;0;     0.121; 36625.930;  17166.893; 1;  17166.893;  40449.488;  43414.098;   6788.168;256;   2.550;  45.901;;;  45.967;  51.515;  13.073;  10.796;   9.954;   2.643;   2.541;   2.407;   0.695;   0.478;;;;;;;;;;;;;;;;;;
2017-01-09T08:55:27.248Z;0;3.0770e+00;0;     0.165; 36628.844;  15752.156; 1;  15752.156;  39872.328;  42471.168;   5842.326;256;   2.550;  45.995;;;  46.059;  51.605;  13.077;  10.686;   9.844;   2.640;   2.540;   2.406;   0.697;   0.473;;;;;;;;;;;;;;;;;;
2017-01-09T08:56:15.248Z;0;5.6660e+00;0;     0.197; 36639.062;  21374.830; 1;  21374.830;  42418.207;  46470.707;   9831.643;256;   2.547;  46.275;;;  46.337;  51.874;  13.088;  10.355;   9.511;   2.632;   2.538;   2.404;   0.704;   0.458;;;;;;;;;;;;;;;;;;
2017-01-09T08:56:47.248Z;0;3.0930e+00;0;     0.110; 36645.586;  15794.044; 1;  15794.044;  39904.273;  42513.219;   5867.630;256;   2.545;  46.463;;;  46.521;  52.053;  13.095;  10.133;   9.288;   2.626;   2.536;   2.403;   0.709;   0.448;;;;;;;;;;;;;;;;;;
2017-01-09T08:57:03.248Z;0;4.7890e+00;0;     0.205; 36648.949;  19650.961; 1;  19650.961;  41584.922;  45193.539;   8544.590;256;   2.544;  46.556;;;  46.613;  52.143;  13.099;  10.023;   9.177;   2.623;   2.535;   2.402;   0.711;   0.443;;;;;;;;;;;;;;;;;;
2017-01-09T08:57:35.247Z;0;3.7500e+00;0;     0.241; 36657.180;  17389.262; 1;  17389.262;  40572.594;  43593.660;   6936.477;256;   2.542;  46.743;;;  46.797;  52.322;  13.107;   9.801;   8.954;   2.618;   2.533;   2.401;   0.716;   0.433;;;;;;;;;;;;;;;;;;
2017-01-09T08:58:23.247Z;0;6.8520e+00;0;     0.184; 36668.410;  23506.637; 1;  23506.637;  43556.105;  48145.359;  11476.951;256;   2.539;  47.024;;;  47.073;  52.589;  13.118;   9.468;   8.619;   2.610;   2.531;   2.398;   0.723;   0.418;;;;;;;;;;;;;;;;;;
2017-01-09T08:58:39.247Z;0;8.6860e+00;0;     0.174; 36673.672;  26466.273; 1;  26466.273;  45226.340;  50534.711;  13861.039;256;   2.538;  47.117;;;  47.165;  52.678;  13.122;   9.356;   8.507;   2.607;   2.530;   2.397;   0.725;   0.413;;;;;;;;;;;;;;;;;;
2017-01-09T08:59:11.247Z;0;6.6400e+00;0;     0.146; 36681.875;  23140.635; 1;  23140.635;  43371.062;  47868.535;  11186.659;256;   2.537;  47.304;;;  47.348;  52.856;  13.129;   9.133;   8.283;   2.602;   2.528;   2.396;   0.730;   0.403;;;;;;;;;;;;;;;;;;
2017-01-09T08:59:27.247Z;0;7.1380e+00;0;     0.179; 36686.133;  23991.082; 1;  23991.082;  43834.281;  48543.066;  11856.936;256;   2.536;  47.398;;;  47.440;  52.945;  13.133;   9.022;   8.171;   2.600;   2.528;   2.395;   0.732;   0.397;;;;;;;;;;;;;;;;;;
2017-01-09T09:00:15.246Z;0;7.2940e+00;0;     0.205; 36701.027;  24252.172; 1;  24252.172;  43990.148;  48762.832;  12061.806;256;   2.533;  47.678;;;  47.715;  53.214;  13.145;   8.687;   7.834;   2.592;   2.525;   2.393;   0.739;   0.382;;;;;;;;;;;;;;;;;;
2017-01-09T09:01:03.246Z;0;7.5820e+00;0;     0.167; 36717.129;  24726.770; 1;  24726.770;  44266.926;  49155.480;  12438.352;256;   2.531;  47.959;;;  47.992;  53.488;  13.156;   8.351;   7.497;   2.585;   2.523;   2.390;   0.746;   0.367;;;;;;;;;;;;;;;;;;
2017-01-09T09:01:35.246Z;0;8.7460e+00;0;     0.139; 36727.375;  26557.553; 1;  26557.553;  45323.324;  50651.902;  13924.524;256;   2.529;  48.146;;;  48.177;  53.671;  13.163;   8.126;   7.271;   2.581;   2.521;   2.388;   0.751;   0.357;;;;;;;;;;;;;;;;;;
2017-01-09T09:02:23.245Z;0;1.0490e+01;0;     0.152; 36745.520;  29087.938; 1;  29087.938;  46865.141;  52777.211;  16031.693;256;   2.527;  48.426;;;  48.455;  53.946;  13.175;   7.789;   6.933;   2.574;   2.519;   2.386;   0.758;   0.342;;;;;;;;;;;;;;;;;;
2017-01-09T09:02:39.245Z;0;1.1990e+01;0;     0.137; 36751.230;  31090.123; 1;  31090.123;  48137.809;  54490.141;  17738.910;256;   2.526;  48.519;;;  48.548;  54.038;  13.179;   7.677;   6.820;   2.572;   2.518;   2.385;   0.760;   0.337;;;;;;;;;;;;;;;;;;
2017-01-09T09:03:11.245Z;0;1.2290e+01;0;     0.129; 36765.035;  31485.895; 1;  31485.895;  48404.848;  54841.789;  18076.754;256;   2.524;  48.706;;;  48.733;  54.222;  13.186;   7.451;   6.593;   2.567;   2.517;   2.383;   0.765;   0.327;;;;;;;;;;;;;;;;;;
2017-01-09T09:03:27.245Z;0;1.1910e+01;0;     0.148; 36771.168;  30991.412; 1;  30991.412;  48089.359;  54420.254;  17649.084;256;   2.523;  48.800;;;  48.825;  54.314;  13.190;   7.338;   6.480;   2.565;   2.516;   2.382;   0.767;   0.322;;;;;;;;;;;;;;;;;;
2017-01-09T09:03:51.245Z;0;1.3830e+01;0;     0.186; 36781.695;  33391.098; 1;  33391.098;  49677.547;  56511.559;  19729.865;256;   2.522;  48.940;;;  48.964;  54.452;  13.196;   7.169;   6.310;   2.562;   2.515;   2.381;   0.771;   0.315;;;;;;;;;;;;;;;;;;
2017-01-09T09:03:59.245Z;0;1.2930e+01;0;     0.193; 36783.852;  32295.777; 1;  32295.777;  48949.656;  55557.504;  18773.652;256;   2.522;  48.987;;;  49.010;  54.498;  13.197;   7.113;   6.253;   2.561;   2.515;   2.380;   0.772;   0.312;;;;;;;;;;;;;;;;;;
2017-01-09T09:04:07.245Z;0;1.4050e+01;0;     0.111; 36788.191;  33659.359; 1;  33659.359;  49863.047;  56751.562;  19963.371;256;   2.521;  49.033;;;  49.056;  54.544;  13.199;   7.056;   6.197;   2.560;   2.514;   2.380;   0.773;   0.310;;;;;;;;;;;;;;;;;;
2017-01-09T09:04:15.245Z;0;1.3470e+01;0;     0.119; 36790.375;  32962.949; 1;  32962.949;  49397.246;  56143.551;  19353.176;256;   2.521;  49.080;;;  49.102;  54.590;  13.201;   7.000;   6.140;   2.559;   2.514;   2.379;   0.774;   0.307;;;;;;;;;;;;;;;;;;
2017-01-09T09:04:23.245Z;0;1.3530e+01;0;     0.144; 36794.801;  33028.602; 1;  33028.602;  49444.371;  56204.184;  19409.383;256;   2.521;  49.127;;;  49.149;  54.636;  13.203;   6.943;   6.083;   2.558;   2.514;   2.379;   0.775;   0.305;;;;;;;;;;;;;;;;;;
2017-01-09T09:04:31.245Z;0;1.3550e+01;0;     0.214; 36799.309;  33051.090; 1;  33051.090;  49462.750;  56227.180;  19427.873;256;   2.520;  49.173;;;  49.195;  54.683;  13.205;   6.886;   6.026;   2.557;   2.513;   2.379;   0.776;   0.302;;;;;;;;;;;;;;;;;;
2017-01-09T09:04:39.245Z;0;1.4220e+01;0;     0.127; 36801.578;  33865.004; 1;  33865.004;  50011.945;  56942.031;  20140.455;256;   2.520;  49.220;;;  49.241;  54.729;  13.207;   6.830;   5.970;   2.556;   2.513;   2.378;   0.778;   0.300;;;;;;;;;;;;;;;;;;
2017-01-09T09:31:11.234Z;0;1.7560e+01;0;     0.112; 38578.430;  37633.172; 1;  37633.172;  53893.883;  61577.859;  22999.430;256;   2.470;  58.437;;;  58.369;  63.769;  13.588;  -4.717;  -5.595;   2.487;   2.471;   2.252;   0.994;  -0.203;;;;;;;;;;;;;;;;;;
2017-01-09T09:31:19.234Z;0;1.7140e+01;0;     0.103; 38596.629;  37177.852; 1;  37177.852;  53590.039;  61186.469;  22589.842;256;   2.470;  58.483;;;  58.414;  63.814;  13.590;  -4.776;  -5.654;   2.487;   2.471;   2.251;   0.995;  -0.206;;;;;;;;;;;;;;;;;;
2017-01-09T09:31:51.234Z;0;1.5870e+01;0;     0.103; 38651.762;  35772.359; 1;  35772.359;  52665.172;  59984.844;  21333.084;256;   2.469;  58.666;;;  58.595;  63.995;  13.598;  -5.012;  -5.890;   2.488;   2.470;   2.248;   1.000;  -0.216;;;;;;;;;;;;;;;;;;
2017-01-09T09:31:59.234Z;0;1.5060e+01;0;     0.095; 38670.324;  34852.344; 1;  34852.344;  52058.426;  59191.582;  20521.260;256;   2.469;  58.711;;;  58.641;  64.041;  13.600;  -5.071;  -5.949;   2.489;   2.470;   2.247;   1.001;  -0.218;;;;;;;;;;;;;;;;;;
2017-01-09T09:32:15.234Z;0;1.4430e+01;0;     0.088; 38698.270;  34111.355; 1;  34111.355;  51586.246;  58566.141;  19867.871;256;   2.469;  58.803;;;  58.731;  64.131;  13.604;  -5.189;  -6.067;   2.489;   2.470;   2.245;   1.003;  -0.223;;;;;;;;;;;;;;;;;;
2017-01-09T09:32:23.234Z;0;1.4250e+01;0;     0.113; 38717.000;  33897.320; 1;  33897.320;  51459.055;  58394.121;  19677.123;256;   2.469;  58.848;;;  58.776;  64.176;  13.606;  -5.248;  -6.126;   2.490;   2.470;   2.244;   1.004;  -0.226;;;;;;;;;;;;;;;;;;
2017-01-09T09:32:47.234Z;0;1.5020e+01;0;     0.094; 38764.211;  34807.910; 1;  34807.910;  52098.508;  59222.492;  20458.285;256;   2.469;  58.985;;;  58.912;  64.312;  13.612;  -5.425;  -6.303;   2.491;   2.470;   2.242;   1.007;  -0.234;;;;;;;;;;;;;;;;;;
2017-01-09T09:32:55.234Z;0;1.4380e+01;0;     0.098; 38773.727;  34054.863; 1;  34054.863;  51605.578;  58573.395;  19799.666;256;   2.469;  59.031;;;  58.957;  64.357;  13.614;  -5.484;  -6.361;   2.491;   2.470;   2.241;   1.008;  -0.236;;;;;;;;;;;;;;;;;;
2017-01-09T09:33:03.234Z;0;1.3990e+01;0;     0.098; 38792.770;  33584.098; 1;  33584.098;  51310.531;  58179.258;  19386.490;256;   2.468;  59.077;;;  59.002;  64.402;  13.616;  -5.543;  -6.420;   2.492;   2.470;   2.240;   1.009;  -0.239;;;;;;;;;;;;;;;;;;
2017-01-09T09:33:27.234Z;0;1.3320e+01;0;     0.083; 38840.762;  32778.016; 1;  32778.016;  50823.254;  57519.586;  18678.826;256;   2.468;  59.214;;;  59.138;  64.538;  13.622;  -5.720;  -6.597;   2.493;   2.470;   2.238;   1.012;  -0.246;;;;;;;;;;;;;;;;;;
2017-01-09T09:33:35.233Z;0;1.2930e+01;0;     0.081; 38850.422;  32288.447; 1;  32288.447;  50516.324;  57106.539;  18256.119;256;   2.468;  59.259;;;  59.183;  64.583;  13.624;  -5.779;  -6.656;   2.493;   2.470;   2.237;   1.013;  -0.249;;;;;;;;;;;;;;;;;;
2017-01-09T09:33:43.233Z;0;1.3150e+01;0;     0.108; 38869.770;  32567.211; 1;  32567.211;  50709.785;  57360.312;  18490.541;256;   2.468;  59.305;;;  59.228;  64.628;  13.626;  -5.838;  -6.715;   2.494;   2.470;   2.236;   1.014;  -0.251;;;;;;;;;;;;;;;;;;
2017-01-09T09:33:51.233Z;0;1.3200e+01;0;     0.115; 38889.227;  32627.627; 1;  32627.627;  50763.512;  57426.914;  18537.686;256;   2.468;  59.351;;;  59.273;  64.673;  13.628;  -5.897;  -6.774;   2.494;   2.470;   2.235;   1.015;  -0.254;;;;;;;;;;;;;;;;;;
2017-01-09T09:33:59.233Z;0;1.2590e+01;0;     0.102; 38898.973;  31866.783; 1;  31866.783;  50285.406;  56782.773;  17883.801;256;   2.468;  59.396;;;  59.318;  64.718;  13.630;  -5.956;  -6.833;   2.495;   2.470;   2.235;   1.016;  -0.256;;;;;;;;;;;;;;;;;;
2017-01-09T09:34:15.233Z;0;1.2170e+01;0;     0.100; 38928.344;  31330.516; 1;  31330.516;  49970.164;  56348.520;  17420.178;256;   2.468;  59.487;;;  59.408;  64.808;  13.633;  -6.074;  -6.951;   2.496;   2.469;   2.233;   1.018;  -0.261;;;;;;;;;;;;;;;;;;
2017-01-09T09:34:23.233Z;0;1.1940e+01;0;     0.096; 38948.000;  31031.154; 1;  31031.154;  49798.387;  56109.629;  17161.627;256;   2.468;  59.533;;;  59.453;  64.853;  13.635;  -6.133;  -7.010;   2.496;   2.469;   2.232;   1.019;  -0.264;;;;;;;;;;;;;;;;;;
2017-01-09T09:34:31.233Z;0;1.2000e+01;0;     0.106; 38967.738;  31106.574; 1;  31106.574;  49860.844;  56188.641;  17220.900;256;   2.468;  59.578;;;  59.499;  64.899;  13.637;  -6.192;  -7.069;   2.497;   2.469;   2.231;   1.020;  -0.266;;;;;;;;;;;;;;;;;;
2017-01-09T09:34:39.233Z;0;1.1140e+01;0;     0.097; 38977.652;  29976.361; 1;  29976.361;  49171.531;  55243.496;  16265.847;256;   2.467;  59.624;;;  59.544;  64.944;  13.639;  -6.251;  -7.128;   2.497;   2.469;   2.230;   1.021;  -0.269;;;;;;;;;;;;;;;;;;
2017-01-09T09:34:47.233Z;0;1.0970e+01;0;     0.101; 38997.504;  29737.463; 1;  29737.463;  49042.043;  55058.812;  16061.311;256;   2.467;  59.669;;;  59.589;  64.989;  13.641;  -6.310;  -7.187;   2.498;   2.469;   2.229;   1.022;  -0.271;;;;;;;;;;;;;;;;;;
2017-01-09T09:35:03.233Z;0;1.0550e+01;0;     0.190; 39027.438;  29172.609; 1;  29172.609;  48725.578;  54611.102;  15583.665;256;   2.467;  59.761;;;  59.679;  65.079;  13.645;  -6.428;  -7.305;   2.499;   2.469;   2.228;   1.024;  -0.276;;;;;;;;;;;;;;;;;;
2017-01-09T09:35:11.233Z;0;1.0550e+01;0;     0.139; 39047.457;  29168.074; 1;  29168.074;  48738.898;  54622.910;  15575.453;256;   2.467;  59.806;;;  59.724;  65.124;  13.647;  -6.487;  -7.364;   2.499;   2.469;   2.227;   1.025;  -0.279;;;;;;;;;;;;;;;;;;
2017-01-09T09:35:27.233Z;0;1.1820e+01;0;     0.168; 39077.668;  30868.842; 1;  30868.842;  49799.090;  56071.715;  16994.047;256;   2.467;  59.897;;;  59.814;  65.214;  13.651;  -6.605;  -7.481;   2.500;   2.469;   2.225;   1.027;  -0.284;;;;;;;;;;;;;;;;;;
2017-01-09T09:35:43.233Z;0;1.0630e+01;0;     0.180; 39108.020;  29282.713; 1;  29282.713;  48856.059;  54765.324;  15657.304;256;   2.467;  59.988;;;  59.904;  65.304;  13.655;  -6.724;  -7.599;   2.501;   2.469;   2.224;   1.029;  -0.289;;;;;;;;;;;;;;;;;;
2017-01-09T09:35:59.233Z;0;9.9170e+00;0;     0.117; 39138.512;  28279.510; 1;  28279.510;  48286.164;  53959.465;  14820.953;256;   2.467;  60.079;;;  59.994;  65.394;  13.659;  -6.842;  -7.717;   2.502;   2.469;   2.222;   1.031;  -0.294;;;;;;;;;;;;;;;;;;
2017-01-09T09:36:15.232Z;0;9.3660e+00;0;     0.111; 39179.449;  27482.432; 1;  27482.432;  47857.215;  53339.410;  14159.963;256;   2.467;  60.170;;;  60.084;  65.484;  13.663;  -6.960;  -7.835;   2.503;   2.469;   2.220;   1.033;  -0.299;;;;;;;;;;;;;;;;;;
2017-01-09T09:36:31.232Z;0;9.8590e+00;0;     0.127; 39210.332;  28195.637; 1;  28195.637;  48295.383;  53946.926;  14736.594;256;   2.467;  60.261;;;  60.174;  65.574;  13.667;  -7.078;  -7.953;   2.505;   2.469;   2.218;   1.035;  -0.304;;;;;;;;;;;;;;;;;;
2017-01-09T09:36:47.232Z;0;9.3120e+00;0;     0.090; 39241.359;  27403.475; 1;  27403.475;  47862.664;  53324.113;  14082.755;256;   2.466;  60.352;;;  60.264;  65.664;  13.671;  -7.196;  -8.071;   2.506;   2.469;   2.217;   1.037;  -0.309;;;;;;;;;;;;;;;;;;
2017-01-09T09:37:03.232Z;0;9.0140e+00;0;     0.131; 39272.520;  26961.645; 1;  26961.645;  47636.762;  52990.613;  13718.095;256;   2.466;  60.442;;;  60.354;  65.754;  13.675;  -7.314;  -8.189;   2.507;   2.469;   2.215;   1.039;  -0.314;;;;;;;;;;;;;;;;;;
2017-01-09T09:37:19.232Z;0;9.1550e+00;0;     0.141; 39303.852;  27170.736; 1;  27170.736;  47781.184;  53184.703;  13880.851;256;   2.466;  60.533;;;  60.444;  65.844;  13.679;  -7.432;  -8.307;   2.508;   2.469;   2.213;   1.041;  -0.319;;;;;;;;;;;;;;;;;;
2017-01-09T09:37:35.232Z;0;8.3240e+00;0;     0.139; 39345.852;  25908.023; 1;  25908.023;  47109.676;  52203.676;  12857.824;256;   2.466;  60.624;;;  60.534;  65.934;  13.683;  -7.550;  -8.425;   2.510;   2.469;   2.211;   1.043;  -0.324;;;;;;;;;;;;;;;;;;
2017-01-09T09:37:51.232Z;0;8.1770e+00;0;     0.167; 39377.520;  25678.232; 1;  25678.232;  47010.219;  52046.430;  12668.911;256;   2.466;  60.715;;;  60.624;  66.024;  13.687;  -7.668;  -8.542;   2.511;   2.469;   2.210;   1.045;  -0.329;;;;;;;;;;;;;;;;;;
2017-01-09T09:38:07.232Z;0;7.5600e+00;0;     0.117; 39409.328;  24690.746; 1;  24690.746;  46505.141;  51294.324;  11884.998;256;   2.466;  60.805;;;  60.713;  66.113;  13.691;  -7.787;  -8.660;   2.512;   2.469;   2.208;   1.047;  -0.334;;;;;;;;;;;;;;;;;;
2017-01-09T09:38:23.232Z;0;6.8300e+00;0;     0.141; 39441.273;  23468.414; 1;  23468.414;  45895.320;  50374.676;  10933.399;256;   2.466;  60.896;;;  60.803;  66.203;  13.695;  -7.905;  -8.778;   2.514;   2.469;   2.206;   1.049;  -0.339;;;;;;;;;;;;;;;;;;
2017-01-09T09:38:39.232Z;0;7.2860e+00;0;     0.116; 39484.086;  24239.537; 1;  24239.537;  46330.859;  51003.898;  11519.810;256;   2.466;  60.986;;;  60.893;  66.293;  13.699;  -8.023;  -8.896;   2.515;   2.469;   2.204;   1.051;  -0.344;;;;;;;;;;;;;;;;;;
2017-01-09T09:38:55.231Z;0;7.3130e+00;0;     0.114; 39516.371;  24284.516; 1;  24284.516;  46381.906;  51065.109;  11548.740;256;   2.466;  61.077;;;  60.983;  66.383;  13.703;  -8.141;  -9.014;   2.516;   2.469;   2.202;   1.052;  -0.349;;;;;;;;;;;;;;;;;;
2017-01-09T09:39:11.231Z;0;7.2150e+00;0;     0.106; 39548.770;  24121.488; 1;  24121.488;  46324.414;  50965.289;  11416.520;256;   2.466;  61.167;;;  61.072;  66.472;  13.707;  -8.259;  -9.132;   2.518;   2.469;   2.201;   1.054;  -0.354;;;;;;;;;;;;;;;;;;
2017-01-09T09:39:27.231Z;0;6.2440e+00;0;     0.119; 39581.305;  22438.969; 1;  22438.969;  45499.309;  49710.164;  10128.860;256;   2.466;  61.258;;;  61.162;  66.562;  13.711;  -8.377;  -9.249;   2.519;   2.469;   2.199;   1.056;  -0.359;;;;;;;;;;;;;;;;;;
2017-01-09T09:39:43.231Z;0;6.5300e+00;0;     0.125; 39613.980;  22946.988; 1;  22946.988;  45780.254;  50120.043;  10506.062;256;   2.466;  61.348;;;  61.251;  66.651;  13.715;  -8.495;  -9.367;   2.521;   2.469;   2.197;   1.058;  -0.364;;;;;;;;;;;;;;;;;;
2017-01-09T09:39:59.231Z;0;6.4460e+00;0;     0.149; 39657.746;  22798.865; 1;  22798.865;  45744.125;  50044.305;  10386.562;256;   2.466;  61.439;;;  61.341;  66.741;  13.719;  -8.613;  -9.485;   2.522;   2.469;   2.195;   1.060;  -0.369;;;;;;;;;;;;;;;;;;
2017-01-09T09:40:15.231Z;0;6.4540e+00;0;     0.115; 39690.699;  22813.814; 1;  22813.814;  45780.148;  50082.879;  10392.177;256;   2.466;  61.529;;;  61.430;  66.829;  13.723;  -8.731;  -9.603;   2.524;   2.469;   2.193;   1.062;  -0.374;;;;;;;;;;;;;;;;;;
2017-01-09T09:40:31.231Z;0;6.1330e+00;0;     0.135; 39723.770;  22238.955; 1;  22238.955;  45525.258;  49679.086;   9955.318;256;   2.466;  61.619;;;  61.520;  66.917;  13.727;  -8.849;  -9.721;   2.525;   2.469;   2.192;   1.064;  -0.379;;;;;;;;;;;;;;;;;;
2017-01-09T09:40:47.231Z;0;5.8280e+00;0;     0.109; 39756.977;  21678.209; 1;  21678.209;  45283.129;  49291.055;   9534.078;256;   2.466;  61.710;;;  61.609;  67.005;  13.731;  -8.967;  -9.838;   2.527;   2.469;   2.190;   1.066;  -0.384;;;;;;;;;;;;;;;;;;
2017-01-09T09:41:03.231Z;0;5.6370e+00;0;     0.131; 39801.438;  21321.496; 1;  21321.496;  45152.637;  49066.535;   9265.097;256;   2.466;  61.800;;;  61.698;  67.093;  13.735;  -9.085;  -9.956;   2.529;   2.469;   2.188;   1.068;  -0.389;;;;;;;;;;;;;;;;;;
2017-01-09T09:41:19.231Z;0;5.7490e+00;0;     0.106; 39834.930;  21531.537; 1;  21531.537;  45281.660;  49248.547;   9413.619;256;   2.466;  61.890;;;  61.788;  67.180;  13.739;  -9.204; -10.074;   2.530;   2.469;   2.186;   1.070;  -0.395;;;;;;;;;;;;;;;;;;
2017-01-09T09:41:35.230Z;0;5.5650e+00;0;     0.109; 39868.500;  21183.295; 1;  21183.295;  45146.754;  49022.156;   9153.656;256;   2.466;  61.980;;;  61.877;  67.268;  13.743;  -9.322; -10.192;   2.532;   2.470;   2.184;   1.072;  -0.400;;;;;;;;;;;;;;;;;;
2017-01-09T09:41:51.230Z;0;5.1210e+00;0;     0.109; 39902.211;  20321.105; 1;  20321.105;  44778.719;  48429.062;   8526.850;256;   2.466;  62.070;;;  61.966;  67.355;  13.747;  -9.440; -10.309;   2.534;   2.470;   2.182;   1.074;  -0.405;;;;;;;;;;;;;;;;;;
2017-01-09T09:42:07.230Z;0;4.9380e+00;0;     0.126; 39947.320;  19954.750; 1;  19954.750;  44654.008;  48207.312;   8259.993;256;   2.466;  62.160;;;  62.055;  67.442;  13.751;  -9.558; -10.427;   2.536;   2.470;   2.180;   1.076;  -0.410;;;;;;;;;;;;;;;;;;
2017-01-09T09:42:23.230Z;0;4.6620e+00;0;     0.122; 39981.254;  19389.885; 1;  19389.885;  44434.992;  47840.094;   7858.839;256;   2.466;  62.250;;;  62.144;  67.529;  13.755;  -9.676; -10.545;   2.537;   2.470;   2.179;   1.078;  -0.415;;;;;;;;;;;;;;;;;;
2017-01-09T09:42:39.230Z;0;4.5480e+00;0;     0.127; 40015.305;  19150.783; 1;  19150.783;  44361.887;  47703.477;   7688.171;256;   2.466;  62.340;;;  62.233;  67.616;  13.759;  -9.794; -10.662;   2.539;   2.470;   2.177;   1.080;  -0.420;;;;;;;;;;;;;;;;;;
2017-01-09T09:42:55.230Z;0;4.3710e+00;0;     0.111; 40049.465;  18774.432; 1;  18774.432;  44231.648;  47474.125;   7424.661;256;   2.466;  62.430;;;  62.322;  67.703;  13.763;  -9.912; -10.780;   2.541;   2.470;   2.175;   1.081;  -0.425;;;;;;;;;;;;;;;;;;
2017-01-09T09:43:11.230Z;0;4.3110e+00;0;     0.163; 40083.711;  18644.836; 1;  18644.836;  44207.848;  47415.305;   7331.597;256;   2.466;  62.520;;;  62.411;  67.790;  13.767; -10.030; -10.898;   2.543;   2.470;   2.173;   1.083;  -0.430;;;;;;;;;;;;;;;;;;